����,���ϕ���(m/s),���ϕ���,�ő�u�ԕ���(m/s),�ő啗��������,�C��(��),���x(%),10���Ԉړ��ώZ�J��(mm),1���Ԉړ��ώZ�J��(mm),���J��(mm),�݌v�J��(mm),����(���ώZ)(MJ/m2),����(���ώZ)(min),���n�C��(hPa),�C�ʋC��(hPa)
2019-09-30T00:00:00+09:00,,,,,,,,,,,,,,
2019-09-30T00:01:00+09:00,1.9,�k��,2.7,�k��,23.2,90,0,0,0,0,0,0,1003.1,1016.6
2019-09-30T00:02:00+09:00,,,,,,,,,,,,,,
2019-09-30T00:03:00+09:00,1.8,�k��,2.7,�k��,23.2,89.2,0,0,0,0,0,0,1003.1,1016.6
2019-09-30T00:04:00+09:00,1.8,�k��,2.7,�k��,23,89.1,0,0,0,0,0,0,1003.2,1016.7
2019-09-30T00:05:00+09:00,,,,,,,,,,,,,,
2019-09-30T00:06:00+09:00,1.7,�k��,2.7,�k��,23,89.5,0,0,0,0,0,0,1003.2,1016.7
2019-09-30T00:07:00+09:00,1.6,�k��,2.7,�k��,23.1,90,0,0,0,0,0,0,1003.2,1016.7
2019-09-30T00:08:00+09:00,1.5,�k��,2.7,�k��,23.1,89.9,0,0,0,0,0,0,1003.2,1016.7
2019-09-30T00:09:00+09:00,1.4,�k��,2.7,�k��,23.1,89.6,0,0,0,0,0,0,1003.2,1016.7
2019-09-30T00:10:00+09:00,1.4,�k��,2.7,�k��,23,89.5,0,0,0,0,0,0,1003.2,1016.7
2019-09-30T00:11:00+09:00,1.4,�k��,2.4,�k��,22.9,89.6,0,0,0,0,0,0,1003.1,1016.6
2019-09-30T00:12:00+09:00,1.4,�k��,2.4,�k��,23,90,0,0,0,0,0,0,1003.1,1016.6
2019-09-30T00:13:00+09:00,1.4,�k��,2.4,�k��,23,89.8,0,0,0,0,0,0,1003.1,1016.6
2019-09-30T00:14:00+09:00,1.4,�k��,2.3,�k��,23.1,90,0,0,0,0,0,0,1003.1,1016.6
2019-09-30T00:15:00+09:00,1.4,�k��,2.3,�k��,23,89.6,0,0,0,0,0,0,1003.1,1016.6
2019-09-30T00:16:00+09:00,1.4,�k��,2.3,�k��,23,89.8,0,0,0,0,0,0,1003.1,1016.6
2019-09-30T00:17:00+09:00,1.4,�k��,2.3,�k��,23.1,89.8,0,0,0,0,0,0,1003.2,1016.7
2019-09-30T00:18:00+09:00,1.4,�k��,2.3,�k��,23.1,89.6,0,0,0,0,0,0,1003.2,1016.7
2019-09-30T00:19:00+09:00,1.4,�k�k��,2.3,�k��,23.1,89.6,0,0,0,0,0,0,1003.2,1016.7
2019-09-30T00:20:00+09:00,1.4,�k�k��,2.3,�k��,23,89.2,0,0,0,0,0,0,1003.2,1016.7
2019-09-30T00:21:00+09:00,1.3,�k�k��,2.1,�k��,23,89.6,0,0,0,0,0,0,1003.3,1016.8
2019-09-30T00:22:00+09:00,1.1,�k�k��,2.1,�k��,23,89.7,0,0,0,0,0,0,1003.3,1016.8
2019-09-30T00:23:00+09:00,1.1,�k,2.1,�k��,23,90,0,0,0,0,0,0,1003.3,1016.8
2019-09-30T00:24:00+09:00,0.9,�k,2.1,�k��,22.9,89.7,0,0,0,0,0,0,1003.3,1016.8
2019-09-30T00:25:00+09:00,0.9,�k,2.1,�k��,23,90.1,0,0,0,0,0,0,1003.3,1016.8
2019-09-30T00:26:00+09:00,0.8,�k,1.7,�k�k��,22.9,90.2,0,0,0,0,0,0,1003.3,1016.8
2019-09-30T00:27:00+09:00,0.8,�k,2.1,�k�k��,23,90.3,0,0,0,0,0,0,1003.2,1016.7
2019-09-30T00:28:00+09:00,0.8,�k,2.2,�k,22.9,89.7,0,0,0,0,0,0,1003.2,1016.7
2019-09-30T00:29:00+09:00,0.9,�k,2.2,�k,22.9,89.8,0,0,0,0,0,0,1003.3,1016.8
2019-09-30T00:30:00+09:00,1,�k,2.2,�k,23,90,0,0,0,0,0,0,1003.3,1016.8
2019-09-30T00:31:00+09:00,1,�k,2.2,�k,23,89.7,0,0,0,0,0,0,1003.3,1016.8
2019-09-30T00:32:00+09:00,1.1,�k,2.3,�k�k��,23,89.1,0,0,0,0,0,0,1003.3,1016.8
2019-09-30T00:33:00+09:00,,,,,,,,,,,,,,
2019-09-30T00:34:00+09:00,1.3,�k�k��,2.3,�k�k��,23,89,0,0,0,0,0,0,1003.3,1016.8
2019-09-30T00:35:00+09:00,1.4,�k�k��,2.3,�k�k��,22.9,88.8,0,0,0,0,0,0,1003.3,1016.8
2019-09-30T00:36:00+09:00,1.4,�k�k��,2.3,�k�k��,22.9,89,0,0,0,0,0,0,1003.3,1016.8
2019-09-30T00:37:00+09:00,1.4,�k�k��,2.3,�k�k��,23,89.3,0,0,0,0,0,0,1003.3,1016.8
2019-09-30T00:38:00+09:00,1.4,�k�k��,2.3,�k�k��,23,89,0,0,0,0,0,0,1003.3,1016.8
2019-09-30T00:39:00+09:00,1.3,�k�k��,2.3,�k�k��,22.9,88.8,0,0,0,0,0,0,1003.3,1016.8
2019-09-30T00:40:00+09:00,1.4,�k�k��,2.3,�k�k��,22.9,89.3,0,0,0,0,0,0,1003.3,1016.8
2019-09-30T00:41:00+09:00,1.4,�k�k��,2.3,�k�k��,22.9,89.5,0,0,0,0,0,0,1003.3,1016.8
2019-09-30T00:42:00+09:00,1.3,�k�k��,2.3,�k�k��,22.9,89.5,0,0,0,0,0,0,1003.3,1016.8
2019-09-30T00:43:00+09:00,1.3,�k�k��,2.3,�k�k��,23,89.8,0,0,0,0,0,0,1003.3,1016.8
2019-09-30T00:44:00+09:00,1.2,�k�k��,2.3,�k�k��,22.9,89.6,0,0,0,0,0,0,1003.3,1016.8
2019-09-30T00:45:00+09:00,1.1,�k,2.3,�k�k��,22.9,89.7,0,0,0,0,0,0,1003.3,1016.8
2019-09-30T00:46:00+09:00,1.1,�k,2.3,�k�k��,22.8,89.9,0,0,0,0,0,0,1003.4,1016.9
2019-09-30T00:47:00+09:00,1.2,�k,2.3,�k�k��,22.8,90.2,0,0,0,0,0,0,1003.4,1016.9
2019-09-30T00:48:00+09:00,1.1,�k,2.3,�k�k��,22.8,90.7,0,0,0,0,0,0,1003.4,1016.9
2019-09-30T00:49:00+09:00,1.2,�k�k��,2.3,�k�k��,22.9,91,0,0,0,0,0,0,1003.3,1016.8
2019-09-30T00:50:00+09:00,1.2,�k�k��,1.8,�k��,22.9,90.8,0,0,0,0,0,0,1003.3,1016.8
2019-09-30T00:51:00+09:00,1.2,�k�k��,1.8,�k��,22.8,90.6,0,0,0,0,0,0,1003.3,1016.8
2019-09-30T00:52:00+09:00,1.1,�k��,1.8,�k��,22.8,90.8,0,0,0,0,0,0,1003.3,1016.8
2019-09-30T00:53:00+09:00,1.1,�k��,1.8,�k��,22.7,91,0,0,0,0,0,0,1003.3,1016.8
2019-09-30T00:54:00+09:00,1.2,�k��,1.8,�k��,22.7,91,0,0,0,0,0,0,1003.3,1016.8
2019-09-30T00:55:00+09:00,1.2,�k�k��,1.8,�k��,22.7,91,0,0,0,0,0,0,1003.3,1016.8
2019-09-30T00:56:00+09:00,1.2,�k�k��,1.8,�k��,22.8,90.9,0,0,0,0,0,0,1003.2,1016.7
2019-09-30T00:57:00+09:00,1.2,�k�k��,1.8,�k��,23,91.1,0,0,0,0,0,0,1003.2,1016.7
2019-09-30T00:58:00+09:00,1.2,�k,1.8,�k��,22.9,90.5,0,0,0,0,0,0,1003.2,1016.7
2019-09-30T00:59:00+09:00,1.2,�k,1.8,�k��,22.8,90,0,0,0,0,0,0,1003.2,1016.7
2019-09-30T01:00:00+09:00,1.2,�k,1.8,�k�k��,22.8,90.1,0,0,0,0,0,0,1003.3,1016.8
2019-09-30T01:01:00+09:00,1.1,�k,1.8,�k�k��,22.9,90.4,0,0,0,0,0,0,1003.3,1016.8
2019-09-30T01:02:00+09:00,1.1,�k,1.8,�k�k��,22.8,90.3,0,0,0,0,0,0,1003.3,1016.8
2019-09-30T01:03:00+09:00,1,�k,1.8,�k�k��,22.8,90.5,0,0,0,0,0,0,1003.3,1016.8
2019-09-30T01:04:00+09:00,1,�k,1.8,�k�k��,22.7,90.2,0,0,0,0,0,0,1003.2,1016.7
2019-09-30T01:05:00+09:00,1,�k�k��,1.8,�k�k��,22.7,90.2,0,0,0,0,0,0,1003.2,1016.7
2019-09-30T01:06:00+09:00,1,�k,1.8,�k�k��,22.7,90.2,0,0,0,0,0,0,1003.2,1016.7
2019-09-30T01:07:00+09:00,,,,,,,,,,,,,,
2019-09-30T01:08:00+09:00,1,�k,1.8,�k�k��,22.6,89.8,0,0,0,0,0,0,1003.3,1016.8
2019-09-30T01:09:00+09:00,0.9,�k,1.8,�k�k��,22.7,90,0,0,0,0,0,0,1003.3,1016.8
2019-09-30T01:10:00+09:00,0.9,�k,1.8,�k�k��,22.8,89.9,0,0,0,0,0,0,1003.3,1016.8
2019-09-30T01:11:00+09:00,0.9,�k,1.8,�k�k��,22.8,89.5,0,0,0,0,0,0,1003.3,1016.8
2019-09-30T01:12:00+09:00,0.9,�k,1.8,�k�k��,22.7,88.9,0,0,0,0,0,0,1003.3,1016.8
2019-09-30T01:13:00+09:00,0.9,�k,1.8,�k�k��,22.7,89.2,0,0,0,0,0,0,1003.3,1016.8
2019-09-30T01:14:00+09:00,0.8,�k,1.8,�k�k��,22.7,89.2,0,0,0,0,0,0,1003.3,1016.8
2019-09-30T01:15:00+09:00,0.8,�k,1.8,�k�k��,22.6,89.1,0,0,0,0,0,0,1003.3,1016.8
2019-09-30T01:16:00+09:00,0.8,�k,1.8,�k�k��,22.6,89.4,0,0,0,0,0,0,1003.4,1016.9
2019-09-30T01:17:00+09:00,0.7,�k,1.8,�k�k��,22.5,89.6,0,0,0,0,0,0,1003.4,1016.9
2019-09-30T01:18:00+09:00,0.7,�k,1.8,�k�k��,22.7,90,0,0,0,0,0,0,1003.4,1016.9
2019-09-30T01:19:00+09:00,0.7,�k,1.8,�k�k��,22.6,90.1,0,0,0,0,0,0,1003.3,1016.8
2019-09-30T01:20:00+09:00,0.6,�k,1.7,�k�k��,22.6,90.1,0,0,0,0,0,0,1003.3,1016.8
2019-09-30T01:21:00+09:00,0.6,�k,1.7,�k�k��,22.4,90.1,0,0,0,0,0,0,1003.3,1016.8
2019-09-30T01:22:00+09:00,0.7,�k�k��,1.7,�k�k��,22.5,90.7,0,0,0,0,0,0,1003.3,1016.8
2019-09-30T01:23:00+09:00,0.7,�k�k��,1.7,�k�k��,22.4,91.1,0,0,0,0,0,0,1003.3,1016.8
2019-09-30T01:24:00+09:00,0.8,�k�k��,1.8,�k,22.4,91.4,0,0,0,0,0,0,1003.3,1016.8
2019-09-30T01:25:00+09:00,0.8,�k�k��,2.2,�k�k��,22.5,91.9,0,0,0,0,0,0,1003.3,1016.8
2019-09-30T01:26:00+09:00,0.8,�k�k��,2.2,�k�k��,22.6,91.9,0,0,0,0,0,0,1003.3,1016.8
2019-09-30T01:27:00+09:00,0.9,�k�k��,2.2,�k�k��,22.6,91.8,0,0,0,0,0,0,1003.3,1016.8
2019-09-30T01:28:00+09:00,1,�k�k��,2.2,�k�k��,22.8,91.6,0,0,0,0,0,0,1003.3,1016.8
2019-09-30T01:29:00+09:00,1.1,�k,2.2,�k�k��,22.8,91.1,0,0,0,0,0,0,1003.3,1016.8
2019-09-30T01:30:00+09:00,1.2,�k,2.2,�k�k��,22.8,90.7,0,0,0,0,0,0,1003.3,1016.8
2019-09-30T01:31:00+09:00,1.2,�k,2.2,�k�k��,22.8,90.4,0,0,0,0,0,0,1003.3,1016.8
2019-09-30T01:32:00+09:00,1.2,�k,2.2,�k�k��,22.8,90.2,0,0,0,0,0,0,1003.3,1016.8
2019-09-30T01:33:00+09:00,1.3,�k�k��,2.2,�k�k��,22.8,90.2,0,0,0,0,0,0,1003.3,1016.8
2019-09-30T01:34:00+09:00,1.3,�k�k��,2.2,�k�k��,22.7,90,0,0,0,0,0,0,1003.3,1016.8
2019-09-30T01:35:00+09:00,1.3,�k�k��,2.2,�k,22.7,90,0,0,0,0,0,0,1003.2,1016.7
2019-09-30T01:36:00+09:00,1.3,�k�k��,2.2,�k,22.8,90,0,0,0,0,0,0,1003.2,1016.7
2019-09-30T01:37:00+09:00,1.4,�k�k��,2.2,�k,22.8,90,0,0,0,0,0,0,1003.2,1016.7
2019-09-30T01:38:00+09:00,1.4,�k�k��,2.2,�k�k��,22.7,89.6,0,0,0,0,0,0,1003.1,1016.6
2019-09-30T01:39:00+09:00,1.4,�k�k��,2.3,�k��,22.8,89.9,0,0,0,0,0,0,1003.1,1016.6
2019-09-30T01:40:00+09:00,,,,,,,,,,,,,,
2019-09-30T01:41:00+09:00,1.5,�k�k��,2.7,�k��,22.7,90,0,0,0,0,0,0,1003.1,1016.6
2019-09-30T01:42:00+09:00,1.5,�k�k��,2.7,�k��,22.6,90,0,0,0,0,0,0,1003.2,1016.7
2019-09-30T01:43:00+09:00,1.5,�k�k��,2.7,�k��,22.5,90.3,0,0,0,0,0,0,1003.2,1016.7
2019-09-30T01:44:00+09:00,1.4,�k�k��,2.7,�k��,22.5,90.5,0,0,0,0,0,0,1003.2,1016.7
2019-09-30T01:45:00+09:00,1.4,�k�k��,2.7,�k��,22.4,90.7,0,0,0,0,0,0,1003.2,1016.7
2019-09-30T01:46:00+09:00,1.4,�k,2.7,�k��,22.4,90.8,0,0,0,0,0,0,1003.2,1016.7
2019-09-30T01:47:00+09:00,1.3,�k,2.7,�k��,22.6,91.7,0,0,0,0,0,0,1003.2,1016.7
2019-09-30T01:48:00+09:00,1.2,�k�k��,2.7,�k��,22.6,91.4,0,0,0,0,0,0,1003.3,1016.8
2019-09-30T01:49:00+09:00,1.1,�k�k��,2.7,�k��,22.6,91.4,0,0,0,0,0,0,1003.3,1016.8
2019-09-30T01:50:00+09:00,1,�k�k��,2.2,�k�k��,22.6,90.9,0,0,0,0,0,0,1003.3,1016.8
2019-09-30T01:51:00+09:00,0.9,�k�k��,2,�k�k��,22.4,90.7,0,0,0,0,0,0,1003.3,1016.8
2019-09-30T01:52:00+09:00,0.8,�k�k��,1.5,�k��,22.5,91.1,0,0,0,0,0,0,1003.3,1016.8
2019-09-30T01:53:00+09:00,0.9,�k�k��,1.5,�k��,22.4,91.3,0,0,0,0,0,0,1003.3,1016.8
2019-09-30T01:54:00+09:00,0.9,�k�k��,1.5,�k��,22.5,91.8,0,0,0,0,0,0,1003.2,1016.7
2019-09-30T01:55:00+09:00,0.8,�k�k��,1.5,�k��,22.5,91.5,0,0,0,0,0,0,1003.2,1016.7
2019-09-30T01:56:00+09:00,0.8,�k�k��,1.5,�k��,22.6,91.5,0,0,0,0,0,0,1003.2,1016.7
2019-09-30T01:57:00+09:00,0.8,�k�k��,1.5,�k�k��,22.6,91.4,0,0,0,0,0,0,1003.2,1016.7
2019-09-30T01:58:00+09:00,0.8,�k,1.5,�k�k��,22.6,91.3,0,0,0,0,0,0,1003.2,1016.7
2019-09-30T01:59:00+09:00,0.8,�k,1.5,�k�k��,22.6,90.9,0,0,0,0,0,0,1003.2,1016.7
2019-09-30T02:00:00+09:00,0.7,�k,1.5,�k�k��,22.6,90.9,0,0,0,0,0,0,1003.2,1016.7
2019-09-30T02:01:00+09:00,0.7,�k�k��,1.5,�k�k��,22.6,90.9,0,0,0,0,0,0,1003.3,1016.8
2019-09-30T02:02:00+09:00,0.7,�k�k��,1.5,�k�k��,22.7,91,0,0,0,0,0,0,1003.3,1016.8
2019-09-30T02:03:00+09:00,0.7,�k�k��,1.5,�k�k��,22.6,90.5,0,0,0,0,0,0,1003.3,1016.8
2019-09-30T02:04:00+09:00,0.7,�k,1.5,�k�k��,22.7,90.8,0,0,0,0,0,0,1003.2,1016.7
2019-09-30T02:05:00+09:00,0.7,�k,1.5,�k�k��,22.7,90.8,0,0,0,0,0,0,1003.2,1016.7
2019-09-30T02:06:00+09:00,0.8,�k,1.6,�k�k��,22.8,90.7,0,0,0,0,0,0,1003.2,1016.7
2019-09-30T02:07:00+09:00,0.8,�k,1.8,�k��,22.8,90.3,0,0,0,0,0,0,1003.2,1016.7
2019-09-30T02:08:00+09:00,0.9,�k�k��,1.8,�k��,22.7,89.9,0,0,0,0,0,0,1003.2,1016.7
2019-09-30T02:09:00+09:00,1,�k�k��,2.5,�k�k��,22.7,89.9,0,0,0,0,0,0,1003.2,1016.7
2019-09-30T02:10:00+09:00,1.1,�k�k��,2.5,�k�k��,22.7,89.8,0,0,0,0,0,0,1003.1,1016.6
2019-09-30T02:11:00+09:00,,,,,,,,,,,,,,
2019-09-30T02:12:00+09:00,1.4,�k�k��,2.5,�k�k��,22.7,90,0,0,0,0,0,0,1003.1,1016.6
2019-09-30T02:13:00+09:00,1.5,�k��,2.6,�k,22.6,90,0,0,0,0,0,0,1003.1,1016.6
2019-09-30T02:14:00+09:00,1.5,�k�k��,2.6,�k,22.7,90.3,0,0,0,0,0,0,1003.1,1016.6
2019-09-30T02:15:00+09:00,1.6,�k�k��,2.6,�k,22.8,90.3,0,0,0,0,0,0,1003.1,1016.6
2019-09-30T02:16:00+09:00,1.6,�k�k��,2.6,�k,22.6,90,0,0,0,0,0,0,1003.1,1016.6
2019-09-30T02:17:00+09:00,1.5,�k�k��,2.6,�k,22.6,90.3,0,0,0,0,0,0,1003.1,1016.6
2019-09-30T02:18:00+09:00,1.5,�k�k��,2.6,�k,22.6,90.5,0,0,0,0,0,0,1003.1,1016.6
2019-09-30T02:19:00+09:00,1.5,�k�k��,2.6,�k,22.8,90.8,0,0,0,0,0,0,1003.1,1016.6
2019-09-30T02:20:00+09:00,1.4,�k,2.6,�k,22.5,90,0,0,0,0,0,0,1003.2,1016.7
2019-09-30T02:21:00+09:00,1.3,�k,2.6,�k,22.6,90.7,0,0,0,0,0,0,1003.2,1016.7
2019-09-30T02:22:00+09:00,1.2,�k,2.6,�k,22.6,90.9,0,0,0,0,0,0,1003.2,1016.7
2019-09-30T02:23:00+09:00,1.1,�k,2.1,�k,22.5,90.9,0,0,0,0,0,0,1003.2,1016.7
2019-09-30T02:24:00+09:00,1,�k,2.1,�k,22.6,91,0,0,0,0,0,0,1003.2,1016.7
2019-09-30T02:25:00+09:00,0.9,�k�k��,2.1,�k,22.4,90.7,0,0,0,0,0,0,1003.2,1016.7
2019-09-30T02:26:00+09:00,0.8,�k�k��,2.1,�k,22.4,91.2,0,0,0,0,0,0,1003.2,1016.7
2019-09-30T02:27:00+09:00,0.8,�k�k��,2.1,�k,22.5,91.6,0,0,0,0,0,0,1003.2,1016.7
2019-09-30T02:28:00+09:00,0.8,�k,2.1,�k,22.7,91.8,0,0,0,0,0,0,1003.2,1016.7
2019-09-30T02:29:00+09:00,0.8,�k,1.8,�k��,22.6,91,0,0,0,0,0,0,1003.2,1016.7
2019-09-30T02:30:00+09:00,0.8,�k,1.6,�k�k��,22.5,90.6,0,0,0,0,0,0,1003.2,1016.7
2019-09-30T02:31:00+09:00,0.8,�k,1.6,�k�k��,22.5,90.7,0,0,0,0,0,0,1003.1,1016.6
2019-09-30T02:32:00+09:00,0.8,�k,1.6,�k�k��,22.5,90.9,0,0,0,0,0,0,1003.1,1016.6
2019-09-30T02:33:00+09:00,0.9,�k�k��,1.8,�k��,22.5,90.9,0,0,0,0,0,0,1003.1,1016.6
2019-09-30T02:34:00+09:00,0.9,�k�k��,1.8,�k��,22.6,91,0,0,0,0,0,0,1003.1,1016.6
2019-09-30T02:35:00+09:00,1,�k�k��,1.8,�k��,22.6,91.2,0,0,0,0,0,0,1003.1,1016.6
2019-09-30T02:36:00+09:00,1.1,�k�k��,1.8,�k��,22.6,90.9,0,0,0,0,0,0,1003.1,1016.6
2019-09-30T02:37:00+09:00,1,�k��,1.8,�k��,22.6,90.9,0,0,0,0,0,0,1003.1,1016.6
2019-09-30T02:38:00+09:00,1,�k��,1.8,�k��,22.4,91,0,0,0,0,0,0,1003.1,1016.6
2019-09-30T02:39:00+09:00,1,�k��,1.8,�k��,22.4,91.6,0,0,0,0,0,0,1003.1,1016.6
2019-09-30T02:40:00+09:00,1,�k��,1.8,�k��,22.6,93,0,0,0,0,0,0,1003.1,1016.6
2019-09-30T02:41:00+09:00,,,,,,,,,,,,,,
2019-09-30T02:42:00+09:00,0.9,�k��,1.8,�k��,22.5,92.5,0,0,0,0,0,0,1003.1,1016.6
2019-09-30T02:43:00+09:00,0.9,�k�k��,2,�k,22.5,92.7,0,0,0,0,0,0,1003,1016.5
2019-09-30T02:44:00+09:00,,,,,,,,,,,,,,
2019-09-30T02:45:00+09:00,0.8,�k�k��,2,�k,22.6,92.9,0,0,0,0,0,0,1003,1016.5
2019-09-30T02:46:00+09:00,0.8,�k�k��,2,�k,22.5,92.2,0,0,0,0,0,0,1003,1016.5
2019-09-30T02:47:00+09:00,0.9,�k�k��,2.3,�k�k��,22.4,92.5,0,0,0,0,0,0,1003,1016.5
2019-09-30T02:48:00+09:00,1,�k�k��,2.3,�k�k��,22.5,92.8,0,0,0,0,0,0,1003,1016.5
2019-09-30T02:49:00+09:00,1.1,�k�k��,2.3,�k�k��,22.4,93.1,0,0,0,0,0,0,1003,1016.5
2019-09-30T02:50:00+09:00,1.2,�k�k��,2.3,�k�k��,22.4,92.9,0,0,0,0,0,0,1003,1016.5
2019-09-30T02:51:00+09:00,1.4,�k�k��,2.3,�k�k��,22.4,92.8,0,0,0,0,0,0,1002.9,1016.4
2019-09-30T02:52:00+09:00,1.4,�k�k��,2.3,�k�k��,22.3,92.4,0,0,0,0,0,0,1002.9,1016.4
2019-09-30T02:53:00+09:00,1.4,�k�k��,2.3,�k�k��,22.4,92.8,0,0,0,0,0,0,1002.9,1016.4
2019-09-30T02:54:00+09:00,1.5,�k�k��,2.3,�k�k��,22.4,92.6,0,0,0,0,0,0,1002.9,1016.4
2019-09-30T02:55:00+09:00,1.6,�k�k��,2.3,�k�k��,22.4,92.8,0,0,0,0,0,0,1002.9,1016.4
2019-09-30T02:56:00+09:00,1.6,�k�k��,2.3,�k�k��,22.4,92.7,0,0,0,0,0,0,1002.9,1016.4
2019-09-30T02:57:00+09:00,1.5,�k�k��,2.3,�k�k��,22.3,92.4,0,0,0,0,0,0,1002.8,1016.3
2019-09-30T02:58:00+09:00,1.4,�k��,2.3,�k�k��,22.2,92.2,0,0,0,0,0,0,1002.8,1016.3
2019-09-30T02:59:00+09:00,1.3,�k��,2.3,�k�k��,22.1,92.4,0,0,0,0,0,0,1002.8,1016.3
2019-09-30T03:00:00+09:00,1.2,�k��,2.2,�k�k��,22.1,92.7,0,0,0,0,0,0,1002.7,1016.2
2019-09-30T03:01:00+09:00,1.1,�k��,2.1,�k�k��,22.2,93.3,0,0,0,0,0,0,1002.7,1016.2
2019-09-30T03:02:00+09:00,0.9,�k��,2,�k�k��,22.2,93.3,0,0,0,0,0,0,1002.7,1016.2
2019-09-30T03:03:00+09:00,0.8,�k��,1.7,�k��,22.2,92.9,0,0,0,0,0,0,1002.8,1016.3
2019-09-30T03:04:00+09:00,0.8,�k��,1.7,�k��,22.2,93.2,0,0,0,0,0,0,1002.8,1016.3
2019-09-30T03:05:00+09:00,0.7,�k��,1.5,�k��,22.2,93,0,0,0,0,0,0,1002.8,1016.3
2019-09-30T03:06:00+09:00,0.7,�k��,1.4,�k��,22.3,93.2,0,0,0,0,0,0,1002.8,1016.3
2019-09-30T03:07:00+09:00,0.7,�k��,1.4,�k��,22.3,92.7,0,0,0,0,0,0,1002.8,1016.3
2019-09-30T03:08:00+09:00,0.7,�k��,1.3,�k,22.3,92.3,0,0,0,0,0,0,1002.8,1016.3
2019-09-30T03:09:00+09:00,0.7,�k�k��,1.3,�k,22.3,92.3,0,0,0,0,0,0,1002.8,1016.3
2019-09-30T03:10:00+09:00,0.8,�k�k��,1.5,�k��,22.3,92.2,0,0,0,0,0,0,1002.8,1016.3
2019-09-30T03:11:00+09:00,0.8,�k,1.8,�k��,22.2,92.3,0,0,0,0,0,0,1002.8,1016.3
2019-09-30T03:12:00+09:00,0.9,�k,2.1,�k��,22.1,92.3,0,0,0,0,0,0,1002.8,1016.3
2019-09-30T03:13:00+09:00,1,�k,2.1,�k��,22.1,92.6,0,0,0,0,0,0,1002.8,1016.3
2019-09-30T03:14:00+09:00,1.1,�k�k��,2.3,�k��,22,92.8,0,0,0,0,0,0,1002.8,1016.3
2019-09-30T03:15:00+09:00,1.2,�k�k��,2.3,�k��,21.9,92.9,0,0,0,0,0,0,1002.9,1016.4
2019-09-30T03:16:00+09:00,,,,,,,,,,,,,,
2019-09-30T03:17:00+09:00,1.4,�k�k��,2.4,�k��,21.9,93.6,0,0,0,0,0,0,1002.9,1016.4
2019-09-30T03:18:00+09:00,1.5,�k�k��,2.4,�k��,21.9,93.8,0,0,0,0,0,0,1002.9,1016.4
2019-09-30T03:19:00+09:00,1.5,�k�k��,2.4,�k��,21.9,93.9,0,0,0,0,0,0,1003,1016.5
2019-09-30T03:20:00+09:00,1.6,�k��,2.4,�k��,22,94.3,0,0,0,0,0,0,1003,1016.5
2019-09-30T03:21:00+09:00,1.6,�k��,2.4,�k��,22,94.5,0,0,0,0,0,0,1003,1016.5
2019-09-30T03:22:00+09:00,1.5,�k��,2.4,�k��,22.1,94.5,0,0,0,0,0,0,1003,1016.5
2019-09-30T03:23:00+09:00,1.5,�k��,2.4,�k��,22.1,94.1,0,0,0,0,0,0,1003,1016.5
2019-09-30T03:24:00+09:00,1.4,�k��,2.4,�k��,22.1,93.9,0,0,0,0,0,0,1003,1016.5
2019-09-30T03:25:00+09:00,1.4,�k��,2.4,�k��,22.1,93.7,0,0,0,0,0,0,1002.9,1016.4
2019-09-30T03:26:00+09:00,1.3,�k��,2.4,�k��,22.1,93.6,0,0,0,0,0,0,1002.9,1016.4
2019-09-30T03:27:00+09:00,1.2,���k��,2.1,�k��,22.1,93.6,0,0,0,0,0,0,1002.9,1016.4
2019-09-30T03:28:00+09:00,1.2,���k��,1.8,�k��,22,93.4,0,0,0,0,0,0,1002.9,1016.4
2019-09-30T03:29:00+09:00,1.2,���k��,1.7,���k��,22.1,93.8,0,0,0,0,0,0,1002.9,1016.4
2019-09-30T03:30:00+09:00,1.1,���k��,1.7,���k��,22,94,0,0,0,0,0,0,1002.9,1016.4
2019-09-30T03:31:00+09:00,1.1,���k��,1.6,���k��,21.9,93.7,0,0,0,0,0,0,1002.9,1016.4
2019-09-30T03:32:00+09:00,1.1,���k��,1.6,���k��,22,94.4,0,0,0,0,0,0,1002.9,1016.4
2019-09-30T03:33:00+09:00,1.1,���k��,1.6,���k��,22.1,95,0,0,0,0,0,0,1002.9,1016.4
2019-09-30T03:34:00+09:00,1.1,���k��,1.6,���k��,22.1,94.7,0,0,0,0,0,0,1002.9,1016.4
2019-09-30T03:35:00+09:00,1.1,���k��,1.6,���k��,22.1,94.3,0,0,0,0,0,0,1002.9,1016.4
2019-09-30T03:36:00+09:00,1.2,���k��,1.6,���k��,22,94.4,0,0,0,0,0,0,1002.9,1016.4
2019-09-30T03:37:00+09:00,1.2,���k��,1.6,���k��,22,94.5,0,0,0,0,0,0,1002.9,1016.4
2019-09-30T03:38:00+09:00,1.2,�k��,1.9,�k�k��,22.1,94.6,0,0,0,0,0,0,1002.8,1016.3
2019-09-30T03:39:00+09:00,1.2,�k��,1.9,�k�k��,22.1,94.5,0,0,0,0,0,0,1002.8,1016.3
2019-09-30T03:40:00+09:00,1.1,�k��,1.9,�k�k��,22.1,94.3,0,0,0,0,0,0,1002.8,1016.3
2019-09-30T03:41:00+09:00,1.1,�k��,1.9,�k�k��,22,93.5,0,0,0,0,0,0,1002.8,1016.3
2019-09-30T03:42:00+09:00,1.1,�k�k��,1.9,�k�k��,22,93.6,0,0,0,0,0,0,1002.8,1016.3
2019-09-30T03:43:00+09:00,1,�k�k��,1.9,�k�k��,22.1,93.6,0,0,0,0,0,0,1002.8,1016.3
2019-09-30T03:44:00+09:00,1,�k�k��,1.9,�k�k��,21.9,93,0,0,0,0,0,0,1002.9,1016.4
2019-09-30T03:45:00+09:00,1,�k�k��,1.9,�k�k��,22,93.3,0,0,0,0,0,0,1002.9,1016.4
2019-09-30T03:46:00+09:00,1,�k�k��,1.9,�k�k��,21.9,93.3,0,0,0,0,0,0,1002.9,1016.4
2019-09-30T03:47:00+09:00,1,�k�k��,1.9,�k�k��,21.9,93.4,0,0,0,0,0,0,1002.9,1016.4
2019-09-30T03:48:00+09:00,1,�k�k��,1.9,�k�k��,22,93.9,0,0,0,0,0,0,1002.9,1016.4
2019-09-30T03:49:00+09:00,,,,,,,,,,,,,,
2019-09-30T03:50:00+09:00,1.2,�k�k��,1.9,�k�k��,21.9,93.4,0,0,0,0,0,0,1002.9,1016.4
2019-09-30T03:51:00+09:00,1.2,�k��,1.7,�k�k��,22,93.8,0,0,0,0,0,0,1002.9,1016.4
2019-09-30T03:52:00+09:00,1.2,�k��,1.8,���k��,21.9,93.7,0,0,0,0,0,0,1002.9,1016.4
2019-09-30T03:53:00+09:00,1.3,�k��,1.9,�k��,21.9,93.7,0,0,0,0,0,0,1002.9,1016.4
2019-09-30T03:54:00+09:00,1.3,�k��,1.9,�k��,21.9,93.6,0,0,0,0,0,0,1002.9,1016.4
2019-09-30T03:55:00+09:00,1.3,�k��,1.9,�k��,21.8,93.7,0,0,0,0,0,0,1002.9,1016.4
2019-09-30T03:56:00+09:00,1.3,�k��,2,�k��,21.7,93.9,0,0,0,0,0,0,1002.9,1016.4
2019-09-30T03:57:00+09:00,1.3,�k��,2,�k��,21.6,94.2,0,0,0,0,0,0,1002.9,1016.4
2019-09-30T03:58:00+09:00,1.3,�k�k��,2,�k��,21.7,94.7,0,0,0,0,0,0,1002.9,1016.4
2019-09-30T03:59:00+09:00,1.3,�k�k��,2.5,�k��,21.8,95.1,0,0,0,0,0,0,1002.9,1016.4
2019-09-30T04:00:00+09:00,1.3,�k�k��,2.6,�k�k��,21.9,95.1,0,0,0,0,0,0,1002.9,1016.4
2019-09-30T04:01:00+09:00,1.4,�k,2.6,�k�k��,21.9,94.4,0,0,0,0,0,0,1003,1016.5
2019-09-30T04:02:00+09:00,1.4,�k,2.6,�k�k��,21.9,94.4,0,0,0,0,0,0,1002.9,1016.4
2019-09-30T04:03:00+09:00,1.4,�k,2.6,�k�k��,21.9,94,0,0,0,0,0,0,1002.9,1016.4
2019-09-30T04:04:00+09:00,1.3,�k,2.6,�k�k��,21.9,94,0,0,0,0,0,0,1002.9,1016.4
2019-09-30T04:05:00+09:00,1.3,�k,2.6,�k�k��,21.9,93.6,0,0,0,0,0,0,1003,1016.5
2019-09-30T04:06:00+09:00,1.2,�k�k��,2.6,�k�k��,21.9,93.8,0,0,0,0,0,0,1003,1016.5
2019-09-30T04:07:00+09:00,1.2,�k�k��,2.6,�k�k��,21.9,93.8,0,0,0,0,0,0,1003,1016.5
2019-09-30T04:08:00+09:00,1.2,�k�k��,2.6,�k�k��,21.9,93.9,0,0,0,0,0,0,1003,1016.5
2019-09-30T04:09:00+09:00,1,�k�k��,2.6,�k�k��,21.9,93.3,0,0,0,0,0,0,1003,1016.5
2019-09-30T04:10:00+09:00,0.9,�k�k��,2.5,�k�k��,21.8,93.6,0,0,0,0,0,0,1003,1016.5
2019-09-30T04:11:00+09:00,0.7,�k�k��,1.9,�k�k��,21.7,93.2,0,0,0,0,0,0,1003,1016.5
2019-09-30T04:12:00+09:00,0.6,�k�k��,1.8,�k�k��,21.6,93.3,0,0,0,0,0,0,1003.1,1016.7
2019-09-30T04:13:00+09:00,0.5,�k�k��,1.3,�k��,21.7,93.7,0,0,0,0,0,0,1003.1,1016.6
2019-09-30T04:14:00+09:00,0.4,�k�k��,1.1,�k�k��,21.6,94.1,0,0,0,0,0,0,1003.1,1016.7
2019-09-30T04:15:00+09:00,0.4,�k,1.1,�k�k��,21.6,94.1,0,0,0,0,0,0,1003.2,1016.8
2019-09-30T04:16:00+09:00,0.3,�k,1.1,�k�k��,21.6,94.5,0,0,0,0,0,0,1003.2,1016.8
2019-09-30T04:17:00+09:00,,,,,,,,,,,,,,
2019-09-30T04:18:00+09:00,0.3,�k�k��,1,�k��,21.5,94.9,0,0,0,0,0,0,1003.2,1016.8
2019-09-30T04:19:00+09:00,0.3,�k�k��,1,�k��,21.7,95.2,0,0,0,0,0,0,1003.1,1016.6
2019-09-30T04:20:00+09:00,0.4,�k�k��,1.2,�k,21.7,95,0,0,0,0,0,0,1003.1,1016.6
2019-09-30T04:21:00+09:00,0.5,�k�k��,1.2,�k,21.6,94.8,0,0,0,0,0,0,1003.1,1016.7
2019-09-30T04:22:00+09:00,0.6,�k�k��,1.8,�k�k��,21.6,94.7,0,0,0,0,0,0,1003.1,1016.7
2019-09-30T04:23:00+09:00,0.6,�k�k��,1.8,�k�k��,21.7,94.9,0,0,0,0,0,0,1003.1,1016.6
2019-09-30T04:24:00+09:00,0.7,�k,1.8,�k�k��,21.7,94.9,0,0,0,0,0,0,1003.1,1016.6
2019-09-30T04:25:00+09:00,0.8,�k,1.8,�k�k��,21.7,94.7,0,0,0,0,0,0,1003.1,1016.6
2019-09-30T04:26:00+09:00,0.8,�k,1.8,�k�k��,21.8,94.5,0,0,0,0,0,0,1003.1,1016.6
2019-09-30T04:27:00+09:00,0.8,�k,1.8,�k�k��,21.7,94.1,0,0,0,0,0,0,1003.1,1016.6
2019-09-30T04:28:00+09:00,0.8,�k,1.8,�k�k��,21.6,93.7,0,0,0,0,0,0,1003.1,1016.7
2019-09-30T04:29:00+09:00,0.8,�k,1.8,�k�k��,21.6,93.8,0,0,0,0,0,0,1003.2,1016.8
2019-09-30T04:30:00+09:00,0.8,�k,1.8,�k�k��,21.6,94.1,0,0,0,0,0,0,1003.2,1016.8
2019-09-30T04:31:00+09:00,0.8,�k,1.8,�k�k��,21.7,94.4,0,0,0,0,0,0,1003.2,1016.7
2019-09-30T04:32:00+09:00,0.7,�k,1.8,�k,21.8,94.2,0,0,0,0,0,0,1003.1,1016.6
2019-09-30T04:33:00+09:00,0.6,�k�k��,1.8,�k,21.7,93.6,0,0,0,0,0,0,1003.1,1016.6
2019-09-30T04:34:00+09:00,0.6,�k�k��,1.8,�k,21.7,93.6,0,0,0,0,0,0,1003.1,1016.6
2019-09-30T04:35:00+09:00,0.5,�k�k��,1.7,�k�k��,21.6,93.7,0,0,0,0,0,0,1003.2,1016.8
2019-09-30T04:36:00+09:00,0.6,�k�k��,1.7,�k�k��,21.5,93.8,0,0,0,0,0,0,1003.2,1016.8
2019-09-30T04:37:00+09:00,0.6,�k��,1.7,�k�k��,21.6,94.2,0,0,0,0,0,0,1003.2,1016.8
2019-09-30T04:38:00+09:00,0.7,�k�k��,1.7,�k�k��,21.6,94.5,0,0,0,0,0,0,1003.1,1016.7
2019-09-30T04:39:00+09:00,0.7,�k��,1.7,�k�k��,21.6,94.3,0,0,0,0,0,0,1003.1,1016.7
2019-09-30T04:40:00+09:00,0.7,�k��,1.5,�k�k��,21.6,94.2,0,0,0,0,0,0,1003.1,1016.7
2019-09-30T04:41:00+09:00,0.7,�k��,1.5,�k�k��,21.6,94.2,0,0,0,0,0,0,1003.1,1016.7
2019-09-30T04:42:00+09:00,0.7,�k��,1.5,�k�k��,21.6,94.2,0,0,0,0,0,0,1003.2,1016.8
2019-09-30T04:43:00+09:00,0.8,�k��,1.5,�k�k��,21.6,94.4,0,0,0,0,0,0,1003.1,1016.7
2019-09-30T04:44:00+09:00,0.8,�k��,1.5,�k�k��,21.6,94.4,0,0,0,0,0,0,1003.1,1016.7
2019-09-30T04:45:00+09:00,0.8,�k�k��,1.5,�k�k��,21.7,94.6,0,0,0,0,0,0,1003.1,1016.6
2019-09-30T04:46:00+09:00,0.8,�k�k��,1.5,�k�k��,21.6,94.4,0,0,0,0,0,0,1003.1,1016.7
2019-09-30T04:47:00+09:00,0.8,�k�k��,2,�k,21.6,94.4,0,0,0,0,0,0,1003.1,1016.7
2019-09-30T04:48:00+09:00,0.8,�k�k��,2.7,�k�k��,21.6,94.3,0,0,0,0,0,0,1003.1,1016.7
2019-09-30T04:49:00+09:00,0.9,�k,2.7,�k�k��,21.7,94.5,0,0,0,0,0,0,1003.1,1016.6
2019-09-30T04:50:00+09:00,1,�k,2.7,�k�k��,21.6,94.2,0,0,0,0,0,0,1003.1,1016.7
2019-09-30T04:51:00+09:00,1.1,�k,2.7,�k�k��,21.7,94,0,0,0,0,0,0,1003.1,1016.6
2019-09-30T04:52:00+09:00,,,,,,,,,,,,,,
2019-09-30T04:53:00+09:00,1.4,�k�k��,2.7,�k�k��,21.8,93.9,0,0,0,0,0,0,1003.1,1016.6
2019-09-30T04:54:00+09:00,1.5,�k�k��,2.7,�k�k��,21.9,93.8,0,0,0,0,0,0,1003.1,1016.6
2019-09-30T04:55:00+09:00,1.7,�k�k��,2.7,�k�k��,21.8,93.1,0,0,0,0,0,0,1003.1,1016.6
2019-09-30T04:56:00+09:00,1.8,�k�k��,2.7,�k�k��,21.8,93,0,0,0,0,0,0,1003.2,1016.7
2019-09-30T04:57:00+09:00,1.9,�k�k��,2.7,�k�k��,21.7,93,0,0,0,0,0,0,1003.2,1016.7
2019-09-30T04:58:00+09:00,1.9,�k��,2.7,�k��,21.7,93,0,0,0,0,0,0,1003.2,1016.7
2019-09-30T04:59:00+09:00,1.9,�k��,2.7,�k��,21.8,93.3,0,0,0,0,0,0,1003.2,1016.7
2019-09-30T05:00:00+09:00,1.9,�k��,2.7,�k��,21.7,93.1,0,0,0,0,0,0,1003.2,1016.7
2019-09-30T05:01:00+09:00,1.9,�k��,2.7,�k��,21.7,93,0,0,0,0,0,0,1003.2,1016.7